User: anonymous
Location: M.A.R.S.Observatory
(35.4031°N, 81.5481°W)
Time: 18:07:06
(UTC-04:00)
Language:

SL-8 R/B - Orbit

View from above orbital plane
View from above orbital plane
View from above satellite
View from above satellite

Ground track
Ground track

The orbit data is extracted from the following two-line orbital elements,

1 33066U 08031G   14241.44748667  .00000202  00000-0  67272-4 0  8663
2 33066 048.4428 212.5352 0007356 117.6640 026.7427 14.68852872332362
Epoch (UTC): 29 August 2014 10:44:22
Eccentricity: 0.0007356
inclination: 48.4428°
perigee height: 659 km
apogee height: 670 km
right ascension of ascending node: 212.5352°
argument of perigee: 117.6640°
revolutions per day: 14.68852872
mean anomaly at epoch: 26.7427°
orbit number at epoch: 33236

The dashed part of the orbit path shows where the satellite is in the earth's shadow,  

DLR